Location: Guferjoch
(46.7462°N, 8.4506°E)
Time: 13:17:09
(UTC+00:00)

Cosmos 1674 Rocket - Pass Details

Date: 14 July 2020
Orbit: 602 x 631 km, 82.5° (Epoch: 07 August)

Event Time Altitude Azimuth Distance (km) Brightness Sun altitude
Rises 02:41:32 0° 343° (NNW) 2,886 7.4 -9.4°
Reaches altitude 10° 02:43:54 10° 335° (NNW) 1,972 6.4 -9.1°
Maximum altitude 02:47:52 36° 269° (W) 972 4.2 -8.6°
Drops below altitude 10° 02:51:48 10° 203° (SSW) 1,945 5.5 -8.2°
Enters shadow 02:52:18 - 200° (SSW) 2,130 5.8 -8.1°
